• In Russia
  • List of Countries
  • For 7 days
  • Water Temperature
  • Satellite Maps
  • Weather Map
  • Weather Widgets
  • user-avatar
    Login

    Hourly Weather Ischgl

    Today, 6 December, Tuesday

    Time Temperature Precipitation Wind Pressure Humidity
    00:00 -13°C° 0 mm 1 mps 572 mmHg 79%
    01:00 -14°C° 0 mm 1 mps 572 mmHg 79%
    02:00 -14°C° 0 mm 1 mps 572 mmHg 77%
    03:00 -13°C° 0 mm 1 mps 572 mmHg 74%
    04:00 -13°C° 0 mm 1 mps 572 mmHg 72%
    05:00 -13°C° 0 mm 1 mps 572 mmHg 72%
    06:00 -13°C° 0 mm 1 mps 572 mmHg 72%
    07:00 -13°C° 0 mm 1 mps 573 mmHg 83%
    08:00 -11°C° 0 mm 1 mps 574 mmHg 80%
    09:00 -8°C° 0 mm 1 mps 576 mmHg 76%
    10:00 -6°C° 0 mm 1 mps 577 mmHg 73%
    11:00 -4°C° 0 mm 1 mps 578 mmHg 73%
    12:00 -3°C° 0 mm 1 mps 578 mmHg 73%
    13:00 -1°C° 0 mm 1 mps 579 mmHg 74%
    14:00 -3°C° 0 mm 1 mps 577 mmHg 79%
    15:00 -7°C° 0 mm 1 mps 576 mmHg 84%
    16:00 -9°C° 0 mm 1 mps 575 mmHg 89%
    17:00 -10°C° 0 mm 1 mps 574 mmHg 85%
    18:00 -11°C° 0 mm 1 mps 574 mmHg 81%
    19:00 -12°C° 0 mm 1 mps 574 mmHg 77%
    20:00 -12°C° 0 mm 1 mps 574 mmHg 71%
    21:00 -12°C° 0 mm 1 mps 574 mmHg 65%
    22:00 -12°C° 0 mm 1 mps 574 mmHg 59%
    23:00 -12°C° 0 mm 1 mps 574 mmHg 56%

    Tomorrow, 7 December, Wednesday

    Time Temperature Precipitation Wind Pressure Humidity
    00:00 -12°C° 0 mm 1 mps 574 mmHg 52%
    01:00 -12°C° 0 mm 1 mps 574 mmHg 49%
    02:00 -12°C° 0 mm 1 mps 574 mmHg 49%
    03:00 -12°C° 0 mm 1 mps 574 mmHg 48%
    04:00 -12°C° 0 mm 1 mps 574 mmHg 48%
    05:00 -12°C° 0 mm 1 mps 574 mmHg 49%
    06:00 -12°C° 0 mm 1 mps 574 mmHg 50%
    07:00 -13°C° 0 mm 1 mps 574 mmHg 51%
    08:00 -10°C° 0 mm 1 mps 576 mmHg 50%
    09:00 -7°C° 0 mm 1 mps 578 mmHg 49%
    10:00 -3°C° 0 mm 1 mps 580 mmHg 48%
    11:00 -2°C° 0 mm 1 mps 580 mmHg 53%
    12:00 -2°C° 0 mm 0 mps 581 mmHg 57%
    13:00 0°C° 0 mm 0 mps 581 mmHg 62%
    14:00 -3°C° 0 mm 0 mps 580 mmHg 61%
    15:00 -6°C° 0 mm 0 mps 578 mmHg 61%
    16:00 -9°C° 0 mm 0 mps 576 mmHg 60%
    17:00 -10°C° 0 mm 0 mps 576 mmHg 60%
    18:00 -10°C° 0 mm 0 mps 576 mmHg 60%
    19:00 -11°C° 0 mm 1 mps 576 mmHg 60%
    20:00 -11°C° 0 mm 1 mps 576 mmHg 58%
    21:00 -11°C° 0 mm 1 mps 576 mmHg 56%
    22:00 -10°C° 0 mm 1 mps 576 mmHg 54%
    23:00 -10°C° 0 mm 1 mps 576 mmHg 52%

    Day after tomorrow, 8 December, Thursday

    Time Temperature Precipitation Wind Pressure Humidity
    00:00 -10°C° 0 mm 1 mps 576 mmHg 51%
    01:00 -10°C° 0 mm 1 mps 577 mmHg 49%
    02:00 -10°C° 0 mm 1 mps 577 mmHg 49%
    03:00 -9°C° 0 mm 1 mps 576 mmHg 49%
    04:00 -9°C° 0 mm 1 mps 576 mmHg 48%
    05:00 -9°C° 0 mm 1 mps 576 mmHg 48%
    06:00 -9°C° 0 mm 1 mps 576 mmHg 47%
    07:00 -9°C° 0 mm 1 mps 576 mmHg 46%
    08:00 -7°C° 0 mm 1 mps 578 mmHg 48%
    09:00 -3°C° 0 mm 1 mps 579 mmHg 50%
    10:00 -1°C° 0 mm 1 mps 581 mmHg 52%
    11:00 0°C° 0 mm 1 mps 581 mmHg 55%
    12:00 +1°C° 0 mm 1 mps 582 mmHg 58%
    13:00 +2°C° 0 mm 1 mps 582 mmHg 61%
    14:00 0°C° 0 mm 1 mps 581 mmHg 59%
    15:00 -4°C° 0 mm 0 mps 579 mmHg 57%
    16:00 -6°C° 0 mm 0 mps 577 mmHg 56%
    17:00 -7°C° 0 mm 0 mps 577 mmHg 55%
    18:00 -8°C° 0 mm 1 mps 577 mmHg 55%
    19:00 -8°C° 0 mm 1 mps 577 mmHg 54%
    20:00 -8°C° 0 mm 1 mps 577 mmHg 54%
    21:00 -8°C° 0 mm 1 mps 577 mmHg 53%
    22:00 -8°C° 0 mm 1 mps 577 mmHg 52%
    23:00 -8°C° 0 mm 1 mps 577 mmHg 51%

    9 December, Friday

    Time Temperature Precipitation Wind Pressure Humidity
    00:00 -8°C° 0 mm 1 mps 577 mmHg 50%
    01:00 -7°C° 0 mm 1 mps 577 mmHg 49%
    02:00 -8°C° 0 mm 1 mps 577 mmHg 49%
    03:00 -8°C° 0 mm 1 mps 577 mmHg 50%
    04:00 -8°C° 0 mm 1 mps 577 mmHg 51%
    05:00 -8°C° 0 mm 1 mps 577 mmHg 49%
    06:00 -9°C° 0 mm 1 mps 577 mmHg 48%
    07:00 -9°C° 0 mm 1 mps 577 mmHg 46%
    08:00 -7°C° 0 mm 1 mps 578 mmHg 48%
    09:00 -4°C° 0 mm 1 mps 579 mmHg 50%
    10:00 -2°C° 0 mm 1 mps 580 mmHg 53%
    11:00 0°C° 0 mm 1 mps 580 mmHg 56%
    12:00 +1°C° 0 mm 1 mps 581 mmHg 59%
    13:00 +2°C° 0 mm 1 mps 581 mmHg 62%
    14:00 -1°C° 0 mm 0 mps 580 mmHg 59%
    15:00 -3°C° 0 mm 0 mps 578 mmHg 56%
    16:00 -6°C° 0 mm 0 mps 576 mmHg 53%
    17:00 -7°C° 0 mm 0 mps 576 mmHg 54%
    18:00 -7°C° 0 mm 0 mps 576 mmHg 54%
    19:00 -8°C° 0 mm 0 mps 575 mmHg 55%
    20:00 -8°C° 0 mm 1 mps 575 mmHg 56%
    21:00 -8°C° 0 mm 1 mps 575 mmHg 56%
    22:00 -8°C° 0 mm 1 mps 575 mmHg 57%
    23:00 -8°C° 0 mm 1 mps 575 mmHg 57%

    10 December, Saturday

    Time Temperature Precipitation Wind Pressure Humidity
    00:00 -8°C° 0 mm 1 mps 575 mmHg 57%
    01:00 -7°C° 0 mm 1 mps 575 mmHg 57%
    02:00 -7°C° 0 mm 1 mps 575 mmHg 57%
    03:00 -8°C° 0 mm 2 mps 575 mmHg 56%
    04:00 -8°C° 0 mm 2 mps 575 mmHg 56%
    05:00 -8°C° 0 mm 2 mps 575 mmHg 58%
    06:00 -8°C° 0 mm 2 mps 575 mmHg 60%
    07:00 -8°C° 0 mm 2 mps 574 mmHg 62%
    08:00 -6°C° 0 mm 2 mps 575 mmHg 60%
    09:00 -3°C° 0 mm 1 mps 576 mmHg 59%
    10:00 -1°C° 0 mm 1 mps 577 mmHg 57%
    11:00 0°C° 0 mm 1 mps 578 mmHg 60%
    12:00 +2°C° 0 mm 1 mps 578 mmHg 63%
    13:00 +2°C° 0 mm 0 mps 579 mmHg 67%
    14:00 -1°C° 0 mm 0 mps 577 mmHg 67%
    15:00 -3°C° 0 mm 0 mps 575 mmHg 67%
    16:00 -6°C° 0 mm 0 mps 573 mmHg 67%
    17:00 -7°C° 0 mm 0 mps 573 mmHg 67%
    18:00 -8°C° 0 mm 0 mps 572 mmHg 68%
    19:00 -8°C° 0 mm 0 mps 572 mmHg 69%
    20:00 -8°C° 0 mm 1 mps 572 mmHg 65%
    21:00 -7°C° 0 mm 1 mps 572 mmHg 60%
    22:00 -7°C° 0 mm 1 mps 573 mmHg 56%
    23:00 -8°C° 0 mm 2 mps 573 mmHg 56%

    11 December, Sunday

    Time Temperature Precipitation Wind Pressure Humidity
    00:00 -8°C° 0 mm 2 mps 573 mmHg 56%
    01:00 -8°C° 0 mm 2 mps 572 mmHg 56%
    02:00 -8°C° 0 mm 2 mps 572 mmHg 56%
    03:00 -8°C° 0 mm 2 mps 572 mmHg 56%
    04:00 -9°C° 0 mm 2 mps 571 mmHg 56%
    05:00 -9°C° 0 mm 2 mps 571 mmHg 56%
    06:00 -8°C° 0 mm 1 mps 571 mmHg 55%
    07:00 -8°C° 0 mm 1 mps 570 mmHg 55%
    08:00 -7°C° 0 mm 1 mps 571 mmHg 56%
    09:00 -4°C° 0 mm 1 mps 572 mmHg 58%
    10:00 -2°C° 0 mm 1 mps 573 mmHg 60%
    11:00 -2°C° 0 mm 1 mps 573 mmHg 64%
    12:00 -1°C° 0 mm 1 mps 573 mmHg 68%
    13:00 0°C° 0 mm 1 mps 573 mmHg 72%
    14:00 -1°C° 0.1 mm 1 mps 573 mmHg 77%
    15:00 -2°C° 0.1 mm 1 mps 573 mmHg 82%
    16:00 -5°C° 0.1 mm 2 mps 572 mmHg 86%
    17:00 -5°C° 0.1 mm 2 mps 572 mmHg 88%
    18:00 -4°C° 0.1 mm 1 mps 572 mmHg 91%
    19:00 -6°C° 0.1 mm 1 mps 572 mmHg 93%
    20:00 -6°C° 0.1 mm 1 mps 572 mmHg 94%
    21:00 -6°C° 0.1 mm 1 mps 572 mmHg 94%
    22:00 -6°C° 0.1 mm 1 mps 572 mmHg 95%
    23:00 -6°C° 0.1 mm 1 mps 572 mmHg 95%
    Show more